ヴォロビヨフ彗星

276P/Vorobjov (2024)

English version
Home page
Updated on November 25, 2024

---------------------------------------------------------------------

・ プロフィール

・ 写真集

・ 軌道要素

Epoch 2024 Oct. 17.0 TT = JDT 2460600.5
T 2024 Dec. 10.81891 TT                                 Rudenko
q   3.8986918            (2000.0)            P               Q
n   0.07971482     Peri.  199.26892     +0.64030792     -0.75653379
a   5.3469977      Node   211.34001     +0.73401693     +0.65363367
e   0.2708634      Incl.   14.80440     +0.22632921     +0.02048519
P  12.4
>From 485 observations 2000 Dec. 19-2024 Sept. 1, mean residual 0".5.

・ 光度変化

        m1 = 28   + 5 logΔ - 15   log r  [    ,-890]  (              〜2022年 7月 4日)
        m1 =  1.0 + 5 logΔ + 22.5 log r  [-890,    ]  (2022年 7月 4日〜              )

---------------------------------------------------------------------

軌道要素はM.P.E.C. 2024-R10に掲載されたものです。
光度グラフはComet for Windowsで作成したものです。

---------------------------------------------------------------------

Copyright(C) Seiichi Yoshida (comet@aerith.net). All rights reserved.